Weather History for Orangeburg, SC

Change the Weather History Date:

Wednesday, May 1, 2013

  Actual Average Record
Temperature  
Mean Temperature 65 °F 67 °F  
Max Temperature 71 °F 80 °F 93 °F (1990)
Min Temperature 58 °F 54 °F 41 °F (1980)
Degree Days  
Heating Degree Days 0 1  
Month to date heating degree days 0 1  
Since 1 July heating degree days 2156 2318  
Cooling Degree Days 0 4  
Month to date cooling degree days 0 4  
Year to date cooling degree days 90 89  
Growing Degree Days 14 (Base 50)    
Moisture  
Dew Point 57 °F    
Average Humidity 80    
Maximum Humidity 93    
Minimum Humidity 61    
Precipitation  
Precipitation T in 0.07 in 1.65 in (1976)
Month to date precipitation T 0.07  
Year to date precipitation 14.80 14.47  
Sea Level Pressure  
Sea Level Pressure 30.16 in    
Wind  
Wind Speed 8 mph (NE)    
Max Wind Speed 14 mph    
Max Gust Speed 20 mph    
Visibility 10 miles    
Events Rain    
T = Trace of Precipitation, MM = Missing Value Source: NWS Daily Summary

Daily Weather History Graph

Daily Weather History Graph

Search for Another Location

Airport:

Trip Planner

Search our weather history database for the weather conditions in past years. The results will help you decide how hot, cold, wet, or windy it might be!

Date:

Astronomy

May. 01, 2013 Rise Set
Actual Time 6:34 AM EDT 8:06 PM EDT
Civil Twilight 6:08 AM EDT 8:33 PM EDT
Nautical Twilight 5:36 AM EDT 9:04 PM EDT
Astronomical Twilight 5:03 AM EDT 9:38 PM EDT
Moon 1:14 AM EDT (5/1) 12:11 PM EDT (5/1)
Length of Visible Light 14h 24m
Length of Day
13h 31m
Waning Gibbous, 59% of the Moon is Illuminated
May 1
Waning Gibbous
May 2
Last Quarter
May 9
New
May 18
First Quarter
May 25
Full

Hourly Weather History & Observations

Time (EDT) Temp. Dew Point Humidity Pressure Visibility Wind Dir Wind Speed Gust Speed Precip Events Conditions
12:22 AM 66.2 °F 62.6 °F 88% 30.13 in 10.0 mi ENE 10.4 mph - N/A   Overcast
12:32 AM 64.4 °F 62.6 °F 94% 30.13 in 10.0 mi ENE 6.9 mph - N/A   Overcast
1:01 AM 64.4 °F 62.6 °F 94% 30.14 in 10.0 mi ENE 4.6 mph - N/A   Overcast
1:20 AM 64.4 °F 62.6 °F 94% 30.13 in 8.0 mi NE 6.9 mph - 0.00 in Rain Light Rain
1:34 AM 64.4 °F 60.8 °F 88% 30.13 in 8.0 mi ENE 8.1 mph 16.1 mph 0.00 in Rain Light Rain
1:49 AM 64.4 °F 60.8 °F 88% 30.12 in 10.0 mi ENE 6.9 mph - 0.00 in   Overcast
1:53 AM 64.0 °F 61.0 °F 90% 30.12 in 10.0 mi ENE 4.6 mph - 0.00 in   Overcast
2:29 AM 64.4 °F 59.0 °F 83% 30.12 in 10.0 mi ENE 8.1 mph - N/A   Overcast
2:53 AM 64.0 °F 59.0 °F 84% 30.11 in 10.0 mi NE 6.9 mph - N/A   Mostly Cloudy
3:53 AM 62.1 °F 57.9 °F 86% 30.11 in 10.0 mi NE 5.8 mph - N/A   Clear
4:53 AM 60.1 °F 57.0 °F 90% 30.12 in 10.0 mi NE 8.1 mph - N/A   Clear
5:53 AM 59.0 °F 55.9 °F 90% 30.12 in 10.0 mi NE 9.2 mph - N/A   Clear
6:53 AM 57.9 °F 55.0 °F 90% 30.13 in 10.0 mi NE 10.4 mph 17.3 mph N/A   Clear
7:17 AM 59.0 °F 55.4 °F 88% 30.14 in 10.0 mi NE 11.5 mph - N/A   Partly Cloudy
7:53 AM 59.0 °F 55.9 °F 90% 30.16 in 10.0 mi NE 8.1 mph - N/A   Scattered Clouds
8:00 AM 59.0 °F 55.4 °F 88% 30.17 in 10.0 mi NE 9.2 mph - N/A   Mostly Cloudy
8:20 AM 60.8 °F 55.4 °F 82% 30.17 in 10.0 mi NE 10.4 mph - N/A   Overcast
8:53 AM 60.1 °F 55.0 °F 83% 30.18 in 10.0 mi NE 11.5 mph - N/A   Overcast
9:53 AM 60.1 °F 55.0 °F 83% 30.20 in 10.0 mi NNE 11.5 mph - N/A   Overcast
12:34 PM 64.4 °F 55.4 °F 73% 30.19 in 10.0 mi NE 8.1 mph - N/A   Overcast
12:53 PM 66.0 °F 55.0 °F 68% 30.19 in 10.0 mi NE 8.1 mph - N/A   Overcast
1:40 PM 68.0 °F 55.4 °F 64% 30.19 in 10.0 mi ENE 6.9 mph - N/A   Overcast
1:48 PM 68.0 °F 55.4 °F 64% 30.19 in 10.0 mi NE 10.4 mph - N/A   Overcast
1:53 PM 66.9 °F 55.9 °F 68% 30.19 in 10.0 mi ENE 8.1 mph - N/A   Overcast
2:29 PM 68.0 °F 55.4 °F 64% 30.18 in 10.0 mi NE 8.1 mph - N/A   Overcast
2:53 PM 69.1 °F 55.9 °F 63% 30.18 in 10.0 mi NE 6.9 mph - N/A   Overcast
3:53 PM 70.0 °F 55.9 °F 61% 30.16 in 10.0 mi NE 10.4 mph - N/A   Overcast
5:53 PM 69.1 °F 57.0 °F 65% 30.16 in 10.0 mi NE 6.9 mph - N/A   Overcast
6:53 PM 68.0 °F 57.0 °F 68% 30.15 in 10.0 mi ENE 5.8 mph - N/A   Overcast
7:53 PM 66.9 °F 57.9 °F 73% 30.16 in 10.0 mi ENE 3.5 mph - N/A   Partly Cloudy
8:53 PM 66.0 °F 57.0 °F 73% 30.18 in 10.0 mi ENE 8.1 mph - N/A   Overcast
9:49 PM 64.4 °F 57.2 °F 77% 30.19 in 10.0 mi NE 9.2 mph - N/A   Overcast
9:53 PM 64.9 °F 57.0 °F 75% 30.19 in 10.0 mi NE 10.4 mph - N/A   Overcast
10:53 PM 64.0 °F 57.0 °F 78% 30.19 in 10.0 mi NE 11.5 mph - N/A   Mostly Cloudy
11:53 PM 63.0 °F 57.9 °F 84% 30.19 in 10.0 mi NE 11.5 mph 18.4 mph N/A   Mostly Cloudy